www.pogodaiklimat.ru

Погода и климат >> Архив погоды >> Саудовская Аравия >> Arar


ПОГОДА в Arar

  • Прогноз погоды в Arar
  • Монитор погоды в Arar
  • Климат города

АРХИВ ПОГОДЫ в Arar

Время (UTC), дата Ветер
(напр.,м/с)
 
Видим.   Явления Облачность Т
(С)
Тd
(С)
f
(%)
Тe
(С)
Тes
(С)
Комфортность P
(гПа)
Po
(гПа)
Тmin
(С)
Tmax
(С)
R
(мм)
R24
(мм)
S
(см)
21 10.10 СЗ 4 10 км ясно +23.2 +15.0 60 +27 +27 душно 1011.1 950.5
00 11.10 СЗ 5 10 км ясно +21.1 +14.0 64 +24 +24 комфорт 1011.4 950.7
03 11.10 СЗ 3 10 км ясно +18.9 +13.0 69 +20 +20 1012.9 951.6
06 11.10 С 4 10 км ясно +24.6 +16.0 59 +28 +32 душно 1014.3 953.1 +18.6
09 11.10 ЮВ 3 10 км ясно +29.8 +18.0 49 +34 +46 очень
душно
1013.3 952.4
12 11.10 З 3 10 км ясно +31.7 +16.0 39 +35 +41 очень
душно
1011.5 950.7
15 11.10 штиль 0 10 км ясно +28.4 +15.0 44 +31 +31 душно 1012.3 950.9
18 11.10 В 4 10 км ясно +24.3 +14.0 53 +27 +27 жарко 1012.9 951.6 +31.7
21 11.10 В 3 10 км ясно +22.2 +13.0 56 +25 +25 комфорт 1012.2 951.3
00 12.10 В 2 10 км ясно +18.8 +11.0 60 +20 +20 1012.5 951.4
03 12.10 СВ 2 10 км ясно +17.2 +11.0 67 +18 +18 1013.4 951.8
06 12.10 В 3 10 км ясно +24.2 +15.0 56 +27 +31 жарко 1014.9 953.5 +17.2
09 12.10 В 7 10 км ясно +30.1 +17.0 45 +34 +38 очень
душно
1013.2 952.2
12 12.10 ЮВ 7 10 км ясно +33.2 +17.0 38 +36 +39 очень
душно
1011.1 950.2
15 12.10 В 6 10 км ясно +30.0 +16.0 43 +33 +33 душно 1011.3 950.0
18 12.10 В 8 10 км ясно +25.8 +15.0 51 +29 +29 душно 1011.4 950.5 +33.2
21 12.10 В 6 10 км ясно +22.0 +13.0 57 +25 +25 комфорт 1011.3 950.6
00 13.10 В 4 10 км ясно +19.0 +11.0 60 +20 +20 1010.9 950.0
03 13.10 В 3 10 км ясно +17.2 +11.0 67 +17 +17 1011.8 950.3
06 13.10 В 2 10 км ясно +23.8 +14.0 54 +26 +31 жарко 1012.6 951.3 +17.0
09 13.10 ЮВ 7 5000 м пыльный позёмок ясно +30.6 +15.0 39 +33 +37 душно 1010.8 949.9
12 13.10 штиль 0 10 км ясно +33.6 +14.0 31 +35 +44 душно 1009.2 948.4
15 13.10 штиль 0 10 км ясно +30.5 +12.0 32 +31 +31 жарко 1009.5 948.3
18 13.10 В 3 10 км ясно +25.0 +11.0 41 +26 +26 жарко 1010.0 949.2
21 13.10 В 5 10 км ясно +22.0 +10.0 46 +24 +24 комфорт 1010.0 949.4
00 14.10 СВ 3 10 км ясно +18.6 +9.0 54 +19 +19 1010.2 949.4
03 14.10 В 3 10 км ясно +17.2 +9.0 59 +17 +17 1011.2 949.7
06 14.10 ЮВ 2 10 км ясно +25.0 +13.0 47 +27 +32 жарко 1012.8 950.8 +16.8
09 14.10 Ю 3 10 км ясно +30.4 +14.0 37 +32 +43 жарко 1010.3 949.5
12 14.10 ЮЗ 5 10 км ясно +34.0 +13.0 28 +34 +38 очень
жарко
1008.3 947.7
15 14.10 З 2 10 км ясно +30.2 +11.0 31 +31 +31 жарко 1008.4 947.3
18 14.10 З 3 10 км ясно +24.4 +8.0 35 +25 +25 комфорт 1009.5 948.5 +34.0
21 14.10 СЗ 6 10 км ясно +23.4 +12.0 49 +26 +26 жарко 1009.4 948.8
00 15.10 СЗ 6 10 км ясно +20.8 +13.0 61 +23 +23 комфорт 1009.4 948.9
03 15.10 З 4 10 км ясно +17.8 +13.0 73 +18 +18 1010.8 949.6
06 15.10 СЗ 5 10 км ясно +23.7 +15.0 58 +27 +29 жарко 1012.5 951.2 +17.8
09 15.10 С 4 10 км ясно +31.1 +13.0 33 +32 +40 жарко 1011.2 950.6
12 15.10 штиль 0 10 км ясно +32.6 +14.0 32 +34 +43 очень
жарко
1010.1 949.4
15 15.10 СЗ 3 10 км ясно +29.1 +13.0 37 +30 +30 жарко 1010.6 949.3
18 15.10 С 2 10 км ясно +23.8 +11.0 45 +25 +25 комфорт 1011.6 950.3 +17.8
21 15.10 З 3 10 км ясно +20.4 +9.0 48 +22 +22 комфорт 1011.2 950.3
00 16.10 С 2 10 км ясно +18.0 +6.0 45 +19 +19 1010.9 949.9
03 16.10 СЗ 3 10 км ясно +16.0 +5.0 48 +16 +16 1012.4 950.8
06 16.10 СВ 2 10 км ясно +25.0 +10.0 39 +26 +31 жарко 1013.1 951.8 +16.0
09 16.10 В 3 10 км ясно +30.4 +10.0 28 +30 +40 жарко 1011.9 950.9
12 16.10 ЮВ 3 10 км ясно +32.0 +12.0 29 +32 +38 жарко 1010.2 949.2
15 16.10 В 3 10 км ясно +28.0 +10.0 32 +28 +28 жарко 1010.5 948.9
18 16.10 В 4 10 км ясно +22.4 +8.0 40 +24 +24 комфорт 1010.8 949.5 +32.0
21 16.10 СВ 3 10 км ясно +19.8 +7.0 43 +21 +21 комфорт 1010.6 949.6
00 17.10 СВ 4 10 км ясно +17.5 +7.0 50 +17 +17 1010.8 949.7
03 17.10 С 5 10 км ясно +16.5 +7.0 53 +16 +16 1012.3 950.5
06 17.10 В 6 10 км ясно +22.0 +9.0 43 +23 +25 комфорт 1014.0 952.2 +16.5
09 17.10 В 8 10 км ясно +28.2 +10.0 32 +28 +31 жарко 1013.1 951.7
12 17.10 В 6 10 км ясно +30.8 +12.0 32 +31 +34 жарко 1011.4 950.2
15 17.10 СВ 4 10 км 5/0
[Ac trans]
+27.0 +11.0 37 +28 +28 жарко 1012.6 950.8

 

Местоположение метеостанции Arar (Саудовская Аравия): широта 30.90 долгота 41.13 высота над уровнем моря 549 м.

В архиве по умолчанию представлена погода в Arar за последнюю неделю. Архивные данные за месяц целиком и за предыдущие месяцы, начиная с января 2011 года, Вы можете получить, выбрав интересующий диапазон дат из раскрывающегося списка и нажав кнопку "Ввод!".

Внимание! Время в таблицах - всемирное. Для получения местного времени необходимо прибавить поправку, которая в Arar равна 3 ч.

Смотрите также архив погоды в соседних городах и на ближайших метеорологических станциях:

Погода в Al-Jouf (Саудовская Аравия) (159 км)
Погода в Al-Nukhib (Ирак) (165 км)
Погода в Turaif (Саудовская Аравия) (244 км)
Погода в Rutbah (Ирак) (250 км)
Погода в Rafha (Саудовская Аравия) (267 км)
Погода в Najaf (Ирак) (326 км)
Погода в H-4 Airport (Иордания) (329 км)
Погода в Karbalaa (Ирак) (334 км)
Погода в Ramadi (Ирак) (351 км)
Погода в Hella (Ирак) (358 км)

Пояснения к столбцам:

Ветер - указаны скорость ветра в м/с - средняя за 10 мин, порывы в срок и между сроками (в фигурных скобках) и направление, откуда дует ветер: С - северный, СВ - северо-восточный, В - восточный, ЮВ - юго-восточный, Ю - южный, ЮЗ - юго-западный, З - западный, СЗ - северо-западный.
Видимость - горизонтальная дальность видимости в метрах или километрах. При видимости от 1 до 10 км при отсутствии осадков обычно наблюдается дымка, при ухудшении видимости до 1 км и менее - туман. В сухую погоду видимость может ухудшаться дымом, пылью или мглою.
Явления - указаны атмосферные явления, наблюдавшиеся в срок или в последний час перед сроком; фигурными скобками обозначены явления, наблюдавшиеся между сроками (за 1-3 часа до срока); квадратными скобками обозначены град или гололедные отложения с указанием их диаметра в мм.
Облачность - указаны через наклонную черту общая и нижняя облачность в баллах и высота нижней границы облаков в метрах; квадратными скобками обозначены формы облаков: Ci - перистые, Cs - перисто-слоистые, Cc - перисто-кучевые, Ac - высококучевые, As - высокослоистые, Sc - слоисто-кучевые, Ns - слоисто-дождевые, Cu - кучевые, Cb - кучево-дождевые. Подробнее классификацию облаков см. в Атласе облаков (PDF).
T - Температура воздуха - температура, измеренная на высоте 2 м над землей.
Td - Температура точки росы - температура, при понижении до которой содержащийся в воздухе водяной пар достигнет насыщения.
f - Относительная влажность воздуха - влажноcть воздуха, измеренная на высоте 2 м над землей.
Te - Эффективная температура - температура, которую ощущает одетый по сезону человек в тени. Характеристика душности погоды. При расчете учитывается влияние влажности воздуха и скорости ветра на теплоощущения человека.
Tes - Эффективная температура на солнце - температура, которую ощущает человек, с поправкой на солнечный нагрев. Характеристика знойности погоды. Зависит от высоты солнца над горизонтом, облачности и скорости ветра. Ночью, в пасмурную погоду, а также при ветре 12 м/с и более поправка равна нулю.
P - Атмосферное давление - приведенное к уровню моря атмосферное давление.
Po - Атмосферное давление - измеренное на уровне метеостанции атмосферное давление.
Tmin - Минимальная температура - минимум температуры воздуха на высоте 2 м над землей.
Tmax - Максимальная температура - максимум температуры воздуха на высоте 2 м над землей.
R - Количество осадков - Количество выпавших осадков за период времени, мм. При наведении курсора мыши на число - период времени, за который выпало указанное количество осадков.
R24 - Количество осадков - Количество выпавших осадков за 24 часа, мм.
S - Снежный покров - Высота снежного покрова, см. При наведении курсора мыши на число - состояние снежного покрова и степень покрытия местности в баллах.